Theta_e
313 313 312 312 311 311 311 310 310 310 309 309 309 308 308 307 306 306 306 305 305 305 305 305 304 305 306 306 307 308 308 308 308 308 308 309 309 308 308 308 308 308
311 311 311 311 310 309 309 309 309 309 308 308 308 307 307 306 305 305 305 305 304 304 304 304 304 304 305 305 306 307 307 307 306 307 308 308 308 308 307 307 307 308
310 310 309 309 309 308 308 308 308 308 307 307 307 306 306 305 305 304 304 304 304 304 303 303 303 304 304 304 305 305 306 305 305 306 307 307 307 307 307 307 307 307
309 309 308 308 308 308 308 307 307 307 306 306 306 305 305 305 304 304 304 303 303 303 303 303 302 303 303 304 304 305 305 304 304 305 306 306 306 306 306 306 307 307
308 308 308 307 307 307 307 306 306 306 306 305 305 304 304 304 303 303 303 303 303 303 302 302 302 302 303 303 303 304 304 304 304 304 304 305 305 305 305 306 306 306
307 307 307 307 307 306 306 305 305 305 304 304 303 303 303 303 303 303 302 302 302 302 302 302 302 302 302 303 303 303 303 303 303 304 304 304 304 305 305 305 305 305
306 306 306 306 305 305 304 304 304 303 303 303 302 302 302 302 302 302 302 302 302 302 302 301 301 302 302 302 302 303 303 303 303 303 303 304 304 304 304 304 305 305
306 305 305 305 304 304 303 303 303 302 302 302 302 302 301 301 301 301 301 301 301 301 302 301 301 301 301 301 302 302 302 303 303 303 303 303 303 303 303 304 304 304
305 304 304 304 304 303 302 302 302 302 301 302 302 301 301 301 301 301 301 301 301 301 301 301 301 301 301 301 301 301 302 302 302 302 303 303 303 303 303 303 303 303
304 304 303 303 303 303 302 302 302 301 301 301 301 301 301 301 301 300 300 301 301 301 301 300 300 300 300 300 301 301 301 301 302 302 302 302 302 302 302 302 302 302
304 303 303 303 302 302 302 302 301 301 301 301 300 300 300 300 300 300 300 300 301 301 300 300 300 299 299 299 300 300 301 301 301 301 301 302 302 302 302 302 301 301
303 303 303 302 302 302 301 301 301 301 300 300 300 300 300 300 300 300 300 300 300 300 300 299 299 298 298 298 299 300 300 301 301 301 301 301 301 301 301 301 301 301
303 303 302 302 301 301 301 300 300 300 300 300 300 300 300 300 300 300 300 300 300 300 299 299 298 297 297 297 297 299 300 300 301 301 301 301 301 301 301 300 300 300
303 302 301 301 301 301 300 300 300 300 300 300 299 300 299 299 299 299 299 300 300 300 299 298 297 296 295 295 296 297 299 300 300 301 301 301 301 301 300 300 299 299
302 301 301 301 300 300 300 300 300 299 299 299 299 300 299 299 299 299 299 299 300 300 299 297 296 295 293 293 294 295 297 300 300 300 300 300 300 300 300 299 299 298
302 301 301 300 300 300 300 300 300 300 299 299 299 299 299 299 299 299 299 299 300 300 299 297 295 293 292 293 294 294 297 299 300 300 300 300 300 299 299 299 298 298
301 301 300 300 300 300 300 299 299 299 299 299 299 299 299 299 299 299 299 299 299 299 298 297 294 292 292 293 294 295 297 299 300 300 299 299 299 298 298 298 298 297
301 300 300 300 300 299 299 299 299 299 299 299 299 299 299 299 298 299 299 299 299 299 298 296 294 292 292 293 294 295 297 298 299 299 299 299 298 298 298 297 297 297
300 300 299 299 299 299 299 299 299 299 299 299 299 299 298 298 298 298 298 299 299 299 298 296 293 292 292 293 294 295 296 298 299 299 298 298 298 298 297 297 296 296
300 299 299 299 299 299 299 299 299 299 299 299 299 299 298 298 298 298 298 298 299 299 298 295 293 292 292 293 294 295 296 297 298 298 298 298 297 297 297 297 296 296
300 300 299 299 299 299 299 299 299 299 299 299 299 298 298 298 298 298 298 298 298 298 298 296 293 292 292 293 294 295 296 297 298 298 298 297 297 297 297 297 296 296
300 299 299 299 299 299 299 299 299 300 299 299 298 298 298 298 297 297 297 297 297 297 298 297 294 292 292 293 294 295 296 297 297 297 297 297 297 297 297 297 296 295
300 299 299 299 299 299 299 299 299 299 299 299 298 298 298 298 297 297 297 297 297 297 297 297 295 292 292 293 293 294 296 297 297 297 297 297 297 297 296 296 296 295
299 299 299 299 299 299 299 299 299 299 299 299 299 298 298 298 298 297 297 297 297 296 296 297 296 293 291 292 292 293 295 297 296 296 297 296 296 296 296 296 296 295
299 299 299 299 299 299 299 299 299 299 299 299 298 298 298 298 298 297 297 297 297 296 295 296 296 294 291 291 292 292 293 295 296 295 296 296 296 296 296 296 296 295
299 299 299 299 299 300 299 299 299 299 299 299 298 298 298 298 298 298 298 297 297 297 296 295 295 295 292 291 292 292 293 294 295 295 295 296 296 295 296 296 295 296
Wind_Speed
10 10 10 10 10 10 10 10 10 10 10 10 10 11 11 11 12 12 12 13 14 14 14 14 15 15 14 13 13 11 11 13 12 11 12 12 12 12 13 14 14 14
11 10 10 10 11 11 11 11 11 11 10 10 11 11 11 12 12 13 13 13 14 15 15 15 15 16 15 14 13 12 12 13 13 13 12 12 12 12 13 14 14 15
12 11 11 11 11 12 11 11 10 11 11 11 11 11 11 11 11 12 13 12 13 14 15 15 15 15 15 14 13 12 12 13 15 14 13 12 13 13 13 13 14 15
12 12 12 12 12 12 11 11 11 11 11 11 11 11 11 11 11 12 12 12 13 13 14 15 16 15 15 15 14 13 12 13 14 15 13 13 13 13 13 13 13 14
11 12 12 12 12 12 12 12 12 12 12 12 12 12 12 12 12 12 12 12 13 13 14 15 16 15 14 14 14 13 13 13 14 15 14 13 13 13 13 13 13 14
13 13 13 13 13 13 13 13 12 12 12 12 12 13 13 13 12 12 12 13 13 14 14 15 15 15 14 14 14 14 13 13 14 15 14 14 14 14 13 13 14 14
14 14 14 14 14 14 14 13 13 13 12 13 13 13 13 13 12 12 12 13 13 14 15 15 15 15 15 14 14 14 14 13 14 15 15 14 14 15 15 14 14 15
14 14 14 14 14 14 14 14 13 13 13 13 13 13 13 13 13 12 13 13 13 14 14 15 15 15 15 14 14 14 14 14 14 15 15 15 15 16 16 15 15 15
15 15 15 15 15 15 14 14 14 13 13 13 12 12 12 12 12 13 12 12 13 13 14 15 15 15 15 15 14 14 14 14 14 14 14 15 15 16 16 16 16 16
15 15 15 15 15 15 14 14 13 13 13 13 12 12 12 12 12 12 12 13 13 13 14 16 16 16 16 15 15 14 14 14 14 14 14 15 15 16 16 16 16 16
16 15 15 15 15 14 14 13 13 13 12 12 13 13 12 12 12 12 13 13 13 14 15 16 17 17 17 16 15 14 13 13 14 14 14 14 15 15 15 16 16 16
15 15 15 14 14 14 13 13 13 13 12 13 13 13 13 13 12 12 13 13 14 14 15 16 17 18 18 18 16 14 13 13 13 14 14 14 14 15 15 16 16 16
15 14 13 13 13 13 13 13 13 13 13 12 13 13 13 13 13 13 13 13 14 14 15 16 18 19 19 19 17 16 14 13 13 14 14 13 14 15 16 17 17 17
14 13 13 13 13 13 13 13 13 13 12 12 13 13 13 13 13 13 13 13 13 14 15 16 18 20 22 22 19 17 14 12 12 13 13 14 14 15 16 17 18 18
13 13 12 12 13 13 13 12 12 12 13 13 13 12 13 13 13 13 13 13 13 13 14 17 19 22 25 24 21 18 14 12 12 13 14 15 15 16 17 17 19 19
13 12 12 12 13 13 12 12 12 12 13 13 13 12 13 13 13 13 13 13 13 13 14 17 20 24 26 23 20 17 13 12 12 13 14 15 16 17 17 19 20 20
13 13 13 12 12 12 12 13 13 13 13 13 13 13 13 13 13 14 13 13 13 14 14 16 21 26 27 23 19 18 15 12 12 13 14 15 17 18 18 20 21 21
13 13 12 12 12 13 13 13 13 13 13 13 13 13 13 13 14 13 13 13 12 13 15 17 21 27 28 24 19 19 18 14 13 13 14 16 17 18 19 20 21 22
14 13 12 12 12 13 13 13 12 12 12 12 12 12 13 14 14 13 13 13 12 13 15 17 22 27 29 24 19 19 19 16 14 14 14 16 18 18 19 20 21 23
14 14 13 12 12 13 12 12 12 12 11 12 12 12 12 13 14 14 14 13 12 12 13 17 23 28 29 24 19 18 19 16 14 14 14 16 18 18 19 20 21 22
14 14 13 13 13 13 12 12 11 11 11 11 11 11 11 12 13 13 13 14 13 12 12 16 22 27 29 26 20 18 18 16 13 14 15 15 17 19 19 19 20 22
14 14 13 13 13 12 12 11 11 10 10 10 11 11 11 11 12 13 13 14 14 13 12 14 20 26 28 28 23 19 18 17 15 14 16 16 17 19 19 20 21 21
14 14 13 13 12 12 11 11 10 10 10 10 10 11 10 10 11 12 12 13 14 15 13 13 17 24 27 28 27 22 18 17 17 15 16 17 17 18 19 20 20 19
14 13 13 13 12 11 11 10 10 9 9 9 9 10 10 10 10 11 11 12 13 15 14 12 14 21 25 26 28 26 21 18 17 17 16 17 18 18 18 19 19 18
14 13 13 12 11 11 10 10 9 9 8 8 8 9 9 9 9 10 11 11 11 13 14 14 13 17 23 24 25 26 24 19 17 17 17 17 18 19 19 18 17 17
14 13 12 12 11 10 9 9 8 8 8 8 8 9 9 9 9 9 10 10 10 11 12 14 14 15 20 22 23 24 24 20 18 18 17 16 17 20 20 18 18 17
Wind_Direction
76 77 78 77 76 75 75 76 78 79 79 79 78 74 67 60 54 51 48 45 43 40 36 34 33 31 28 25 25 23 19 16 12 8 6 5 4 2 360 358 358 355
80 80 82 82 82 80 80 79 79 81 80 79 78 74 68 62 56 53 50 45 42 40 36 34 33 31 28 25 23 23 21 16 12 7 5 5 3 2 1 0 360 357
85 86 86 86 86 84 83 83 82 83 82 78 75 72 68 63 58 53 50 46 42 39 37 34 33 32 29 26 24 23 21 17 13 8 6 6 3 0 360 360 359 357
88 89 89 88 88 87 87 87 84 82 81 77 73 71 69 64 59 54 48 45 43 39 37 34 33 32 29 27 26 23 21 18 14 10 8 7 4 0 358 356 356 355
90 90 90 90 90 90 89 87 83 81 79 76 73 69 67 63 58 54 48 45 42 39 37 34 32 30 27 26 25 22 20 17 12 10 9 7 4 2 358 355 354 353
94 92 91 91 91 90 89 85 81 79 76 73 71 67 64 62 58 53 48 44 41 38 35 32 29 27 24 23 23 20 18 14 10 9 8 6 4 2 359 355 354 354
97 94 92 92 91 88 86 83 78 77 74 72 71 67 63 61 56 52 47 43 40 37 34 31 27 25 23 21 19 17 14 11 8 7 6 5 3 2 1 358 355 355
98 95 94 92 90 86 83 81 78 75 74 73 70 66 63 59 55 51 46 43 40 37 34 31 27 25 22 19 16 13 12 9 6 4 4 2 1 1 0 359 357 357
98 95 94 91 88 85 82 80 78 74 73 72 69 65 61 57 54 50 47 44 42 39 34 30 27 25 21 18 15 12 9 7 4 2 1 359 359 359 358 359 359 359
99 96 93 90 87 84 82 80 78 75 71 69 67 65 60 57 54 50 48 46 43 40 36 31 27 23 19 16 13 10 7 5 2 1 360 359 358 358 357 358 358 358
98 96 92 89 87 85 82 80 78 75 72 68 67 64 61 57 54 50 48 46 45 42 37 33 28 23 19 15 10 7 6 3 2 1 360 359 358 358 358 358 358 357
98 95 92 89 87 85 82 80 78 76 73 69 66 64 60 56 53 51 49 47 47 44 40 35 30 24 19 14 8 5 3 2 3 2 360 359 358 358 360 359 358 358
98 95 93 89 87 86 84 82 79 76 74 70 66 62 58 53 52 51 50 49 48 46 42 36 31 25 19 13 7 2 359 359 2 2 0 360 360 360 2 1 360 359
100 96 93 91 90 89 86 83 80 77 73 69 64 60 55 52 52 52 53 52 49 48 44 37 31 25 19 12 5 359 357 357 360 1 0 360 1 2 3 3 1 360
102 98 96 94 93 91 88 85 82 77 72 67 62 59 56 53 53 53 54 52 50 50 45 37 31 24 19 16 10 3 359 1 2 3 3 3 2 3 3 3 1 359
106 103 101 98 95 93 90 87 82 77 72 68 63 60 57 54 52 52 53 51 50 49 44 38 30 22 18 19 20 17 10 4 5 7 7 6 5 4 3 2 360 357
111 108 104 101 98 96 92 88 82 78 73 69 65 61 58 56 54 52 51 51 51 48 44 38 27 20 18 20 29 36 30 15 8 8 9 8 7 5 2 360 358 355
115 111 106 104 101 97 93 89 84 79 75 71 67 64 60 57 54 53 51 50 51 49 45 36 24 19 19 23 34 41 39 29 14 8 11 10 7 6 3 360 358 354
118 114 109 106 102 98 95 91 86 81 75 72 69 66 62 59 55 53 50 49 48 48 45 35 24 19 20 26 36 39 37 34 20 11 12 10 8 6 3 1 358 355
122 119 115 111 105 100 96 92 87 81 76 72 70 67 63 59 55 52 49 47 46 47 46 35 25 22 22 27 36 38 36 32 20 13 12 9 8 7 4 2 360 356
127 125 120 113 107 102 98 93 87 82 75 71 69 67 64 60 56 53 49 47 44 43 45 37 27 25 27 29 32 36 35 28 17 13 12 9 8 6 4 2 0 357
131 128 122 116 111 106 100 93 88 83 77 73 70 68 66 62 59 55 50 48 44 41 43 40 30 28 30 30 29 32 32 23 13 12 12 9 7 6 4 2 360 357
134 130 124 120 115 109 103 95 90 84 79 74 69 67 66 63 61 58 54 50 46 41 40 40 33 29 30 30 29 30 28 19 12 11 9 7 6 5 3 2 1 358
135 131 127 123 118 113 106 99 93 86 80 75 70 67 66 64 63 60 56 53 48 43 39 39 36 30 28 29 28 29 30 21 12 10 8 6 6 4 2 1 359 356
134 131 128 125 120 115 109 103 95 86 81 76 71 69 66 64 64 60 56 53 50 47 42 39 36 29 27 28 27 28 30 23 13 10 7 5 5 2 359 358 356 353
133 131 129 126 122 118 112 105 96 88 85 78 71 68 64 62 62 59 58 54 49 50 46 41 37 29 25 27 29 28 29 25 16 10 5 1 3 2 358 356 356 354